When you browse on this site, cookies collect data to enhance your experience and personalize the content and advertising you see.
Visit our Privacy Policy to learn more. By continuing to use the site, you agree to this use of cookies and data.
  • In Hungary
  • List of Countries
  • For 7 days
  • Water Temperature
  • Satellite Maps
  • Weather Map
  • News
  • Weather Widgets
  • user-avatar
    Login

    Hourly Weather Casa Grande

    Today, 19 March, Tuesday

    Time Temperature Precipitation Wind Pressure Humidity
    00:00 +20°C° 0 mm 2 mps 724 mmHg 32%
    01:00 +20°C° 0 mm 2 mps 724 mmHg 33%
    02:00 +19°C° 0 mm 2 mps 724 mmHg 34%
    03:00 +19°C° 0 mm 2 mps 724 mmHg 35%
    04:00 +18°C° 0 mm 2 mps 724 mmHg 36%
    05:00 +18°C° 0 mm 4 mps 724 mmHg 38%
    06:00 +18°C° 0 mm 3 mps 724 mmHg 37%
    07:00 +19°C° 0 mm 3 mps 724 mmHg 37%
    08:00 +19°C° 0 mm 3 mps 724 mmHg 36%
    09:00 +22°C° 0 mm 3 mps 725 mmHg 32%
    10:00 +25°C° 0 mm 4 mps 725 mmHg 28%
    11:00 +27°C° 0 mm 4 mps 725 mmHg 24%
    12:00 +28°C° 0 mm 3 mps 724 mmHg 22%
    13:00 +29°C° 0 mm 3 mps 724 mmHg 20%
    14:00 +29°C° 0 mm 2 mps 723 mmHg 19%
    15:00 +29°C° 0 mm 2 mps 723 mmHg 18%
    16:00 +29°C° 0 mm 2 mps 723 mmHg 18%
    17:00 +29°C° 0 mm 2 mps 722 mmHg 18%
    18:00 +28°C° 0 mm 2 mps 723 mmHg 20%
    19:00 +27°C° 0 mm 2 mps 723 mmHg 22%
    20:00 +26°C° 0 mm 2 mps 723 mmHg 24%
    21:00 +25°C° 0 mm 2 mps 723 mmHg 25%
    22:00 +24°C° 0 mm 2 mps 723 mmHg 26%
    23:00 +21°C° 0 mm 2 mps 723 mmHg 27%

    Tomorrow, 20 March, Wednesday

    Time Temperature Precipitation Wind Pressure Humidity
    00:00 +21°C° 0 mm 2 mps 723 mmHg 28%
    01:00 +20°C° 0 mm 2 mps 723 mmHg 29%
    02:00 +19°C° 0 mm 2 mps 723 mmHg 29%
    03:00 +20°C° 0 mm 1 mps 723 mmHg 30%
    04:00 +19°C° 0 mm 1 mps 723 mmHg 32%
    05:00 +18°C° 0 mm 1 mps 723 mmHg 33%
    06:00 +20°C° 0 mm 1 mps 723 mmHg 31%
    07:00 +21°C° 0 mm 1 mps 724 mmHg 30%
    08:00 +22°C° 0 mm 1 mps 724 mmHg 29%
    09:00 +24°C° 0 mm 2 mps 724 mmHg 25%
    10:00 +25°C° 0 mm 3 mps 724 mmHg 22%
    11:00 +27°C° 0 mm 4 mps 724 mmHg 19%
    12:00 +28°C° 0 mm 5 mps 724 mmHg 17%
    13:00 +29°C° 0 mm 7 mps 723 mmHg 14%
    14:00 +31°C° 0 mm 8 mps 723 mmHg 12%
    15:00 +29°C° 0 mm 9 mps 722 mmHg 11%
    16:00 +29°C° 0 mm 9 mps 722 mmHg 11%
    17:00 +28°C° 0 mm 10 mps 722 mmHg 11%
    18:00 +26°C° 0 mm 9 mps 722 mmHg 15%
    19:00 +23°C° 0 mm 8 mps 722 mmHg 19%
    20:00 +21°C° 0 mm 7 mps 722 mmHg 24%
    21:00 +20°C° 0.1 mm 6 mps 723 mmHg 31%
    22:00 +19°C° 0.1 mm 5 mps 723 mmHg 37%
    23:00 +17°C° 0.1 mm 5 mps 723 mmHg 44%

    Day after tomorrow, 21 March, Thursday

    Time Temperature Precipitation Wind Pressure Humidity
    00:00 +17°C° 0.6 mm 5 mps 723 mmHg 48%
    01:00 +16°C° 0.6 mm 5 mps 723 mmHg 52%
    02:00 +16°C° 0.6 mm 5 mps 723 mmHg 55%
    03:00 +15°C° 0.1 mm 4 mps 723 mmHg 58%
    04:00 +14°C° 0.1 mm 4 mps 723 mmHg 61%
    05:00 +13°C° 0.1 mm 3 mps 723 mmHg 64%
    06:00 +13°C° 0 mm 3 mps 724 mmHg 61%
    07:00 +14°C° 0 mm 4 mps 725 mmHg 58%
    08:00 +14°C° 0 mm 4 mps 725 mmHg 54%
    09:00 +16°C° 0 mm 5 mps 725 mmHg 46%
    10:00 +17°C° 0 mm 5 mps 726 mmHg 38%
    11:00 +19°C° 0 mm 5 mps 726 mmHg 30%
    12:00 +20°C° 0 mm 5 mps 726 mmHg 26%
    13:00 +21°C° 0 mm 5 mps 725 mmHg 22%
    14:00 +22°C° 0 mm 5 mps 725 mmHg 18%
    15:00 +21°C° 0 mm 6 mps 724 mmHg 19%
    16:00 +21°C° 0 mm 6 mps 724 mmHg 19%
    17:00 +21°C° 0 mm 6 mps 724 mmHg 20%
    18:00 +20°C° 0 mm 5 mps 724 mmHg 23%
    19:00 +19°C° 0 mm 5 mps 724 mmHg 25%
    20:00 +18°C° 0 mm 4 mps 724 mmHg 28%
    21:00 +17°C° 0 mm 4 mps 725 mmHg 31%
    22:00 +15°C° 0 mm 4 mps 725 mmHg 34%
    23:00 +15°C° 0 mm 4 mps 725 mmHg 37%

    22 March, Friday

    Time Temperature Precipitation Wind Pressure Humidity
    00:00 +14°C° 0 mm 3 mps 725 mmHg 41%
    01:00 +13°C° 0 mm 3 mps 725 mmHg 45%
    02:00 +14°C° 0 mm 2 mps 725 mmHg 49%
    03:00 +13°C° 0 mm 2 mps 724 mmHg 52%
    04:00 +12°C° 0 mm 1 mps 724 mmHg 55%
    05:00 +12°C° 0 mm 1 mps 724 mmHg 58%
    06:00 +13°C° 0 mm 1 mps 725 mmHg 54%
    07:00 +14°C° 0 mm 1 mps 725 mmHg 50%
    08:00 +15°C° 0 mm 1 mps 726 mmHg 46%
    09:00 +16°C° 0 mm 1 mps 726 mmHg 41%
    10:00 +16°C° 0 mm 0 mps 726 mmHg 36%
    11:00 +17°C° 0 mm 0 mps 726 mmHg 31%
    12:00 +20°C° 0 mm 1 mps 726 mmHg 28%
    13:00 +21°C° 0 mm 1 mps 725 mmHg 26%
    14:00 +22°C° 0 mm 1 mps 725 mmHg 23%
    15:00 +21°C° 0 mm 2 mps 725 mmHg 22%
    16:00 +23°C° 0 mm 2 mps 724 mmHg 21%
    17:00 +23°C° 0 mm 2 mps 724 mmHg 20%
    18:00 +21°C° 0 mm 2 mps 724 mmHg 23%
    19:00 +20°C° 0 mm 2 mps 725 mmHg 25%
    20:00 +19°C° 0 mm 2 mps 725 mmHg 27%
    21:00 +18°C° 0 mm 2 mps 725 mmHg 30%
    22:00 +18°C° 0 mm 1 mps 725 mmHg 32%
    23:00 +16°C° 0 mm 0 mps 726 mmHg 35%

    23 March, Saturday

    Time Temperature Precipitation Wind Pressure Humidity
    00:00 +15°C° 0 mm 0 mps 725 mmHg 36%
    01:00 +15°C° 0 mm 0 mps 725 mmHg 37%
    02:00 +14°C° 0 mm 0 mps 725 mmHg 37%
    03:00 +14°C° 0 mm 0 mps 725 mmHg 38%
    04:00 +13°C° 0 mm 0 mps 725 mmHg 39%
    05:00 +13°C° 0 mm 0 mps 725 mmHg 40%
    06:00 +14°C° 0 mm 0 mps 725 mmHg 36%
    07:00 +16°C° 0 mm 1 mps 725 mmHg 33%
    08:00 +19°C° 0 mm 1 mps 726 mmHg 29%
    09:00 +20°C° 0 mm 1 mps 726 mmHg 27%
    10:00 +21°C° 0 mm 1 mps 726 mmHg 25%
    11:00 +22°C° 0 mm 1 mps 726 mmHg 23%
    12:00 +23°C° 0 mm 1 mps 725 mmHg 21%
    13:00 +24°C° 0 mm 1 mps 724 mmHg 19%
    14:00 +25°C° 0 mm 1 mps 724 mmHg 17%
    15:00 +25°C° 0 mm 1 mps 724 mmHg 17%
    16:00 +26°C° 0 mm 1 mps 723 mmHg 16%
    17:00 +26°C° 0 mm 2 mps 723 mmHg 15%
    18:00 +25°C° 0 mm 2 mps 723 mmHg 17%
    19:00 +23°C° 0 mm 2 mps 724 mmHg 20%
    20:00 +21°C° 0 mm 2 mps 724 mmHg 22%
    21:00 +20°C° 0 mm 2 mps 724 mmHg 24%
    22:00 +20°C° 0 mm 1 mps 724 mmHg 27%
    23:00 +19°C° 0 mm 1 mps 724 mmHg 29%

    24 March, Sunday

    Time Temperature Precipitation Wind Pressure Humidity
    00:00 +19°C° 0 mm 1 mps 724 mmHg 30%
    01:00 +19°C° 0 mm 1 mps 724 mmHg 31%
    02:00 +17°C° 0 mm 2 mps 724 mmHg 32%
    03:00 +16°C° 0 mm 1 mps 724 mmHg 35%
    04:00 +16°C° 0 mm 1 mps 724 mmHg 38%
    05:00 +15°C° 0 mm 1 mps 724 mmHg 41%
    06:00 +16°C° 0 mm 1 mps 724 mmHg 39%
    07:00 +16°C° 0 mm 0 mps 725 mmHg 38%
    08:00 +17°C° 0 mm 0 mps 725 mmHg 36%
    09:00 +18°C° 0 mm 0 mps 725 mmHg 33%
    10:00 +20°C° 0 mm 0 mps 726 mmHg 30%
    11:00 +21°C° 0 mm 0 mps 726 mmHg 27%
    12:00 +24°C° 0 mm 1 mps 726 mmHg 24%
    13:00 +25°C° 0 mm 1 mps 725 mmHg 22%
    14:00 +26°C° 0 mm 2 mps 725 mmHg 20%
    15:00 +26°C° 0 mm 2 mps 725 mmHg 19%
    16:00 +27°C° 0 mm 3 mps 725 mmHg 18%
    17:00 +27°C° 0 mm 3 mps 725 mmHg 17%
    18:00 +25°C° 0 mm 3 mps 725 mmHg 19%
    19:00 +24°C° 0 mm 3 mps 726 mmHg 20%
    20:00 +22°C° 0 mm 3 mps 726 mmHg 22%
    21:00 +21°C° 0 mm 2 mps 727 mmHg 24%
    22:00 +21°C° 0 mm 1 mps 727 mmHg 27%
    23:00 +20°C° 0 mm 1 mps 727 mmHg 29%
    Show more